RYR67HD LEMG-LEPA

Flight info

Callsign RYR67HD
Flight time 0h 59m
Altitude 32000
Route RIXUR M445 LASPO/N0404F260 M871 GODOX
Aircraft A320/M-SDE3FGHIRWY/LB1

Departure

Time 2026-05-07 19:36
Airport Málaga-Costa del Sol Airport (LEMG)

Arrival

Time 2026-05-07 20:36
Airport Palma de Mallorca Airport (LEPA)
Time Latitude Longitude Altitude Speed Heading
2026-05-07 19:26 36.67763 -4.49615 42 ft 0 kts 41°
2026-05-07 19:29 36.67760 -4.49618 42 ft 3 kts 41°
2026-05-07 19:29 36.67739 -4.49639 42 ft 4 kts 31°
2026-05-07 19:29 36.67715 -4.49653 42 ft 4 kts
2026-05-07 19:29 36.67694 -4.49647 38 ft 3 kts 316°
2026-05-07 19:30 36.67677 -4.49627 39 ft 1 kts 311°
2026-05-07 19:30 36.67677 -4.49626 39 ft 0 kts 311°
2026-05-07 19:32 36.67679 -4.49629 38 ft 3 kts 311°
2026-05-07 19:32 36.67729 -4.49699 42 ft 16 kts 311°
2026-05-07 19:32 36.67800 -4.49803 42 ft 13 kts 303°
2026-05-07 19:33 36.67799 -4.49901 42 ft 13 kts 291°
2026-05-07 19:33 36.67861 -4.49993 42 ft 15 kts 311°
2026-05-07 19:33 36.67916 -4.50094 42 ft 13 kts 269°
2026-05-07 19:33 36.67907 -4.50197 44 ft 13 kts 302°
2026-05-07 19:34 36.67980 -4.50301 44 ft 19 kts 311°
2026-05-07 19:34 36.68081 -4.50442 44 ft 24 kts 312°
2026-05-07 19:34 36.68198 -4.50607 44 ft 27 kts 311°
2026-05-07 19:34 36.68325 -4.50784 48 ft 28 kts 312°
2026-05-07 19:35 36.68455 -4.50966 52 ft 25 kts 311°
2026-05-07 19:35 36.68497 -4.51098 52 ft 12 kts 237°
2026-05-07 19:35 36.68425 -4.51137 57 ft 11 kts 197°
2026-05-07 19:35 36.68357 -4.51123 56 ft 13 kts 134°
2026-05-07 19:36 36.68211 -4.50919 55 ft 61 kts 131°
2026-05-07 19:36 36.67776 -4.50309 54 ft 123 kts 131°
2026-05-07 19:36 36.67108 -4.49367 162 ft 156 kts 129°
2026-05-07 19:36 36.66395 -4.48365 828 ft 155 kts 129°
2026-05-07 19:37 36.65678 -4.47358 1456 ft 157 kts 132°
2026-05-07 19:37 36.64917 -4.46297 1816 ft 174 kts 133°
2026-05-07 19:37 36.64065 -4.45116 2089 ft 197 kts 133°
2026-05-07 19:37 36.63117 -4.43733 2392 ft 223 kts 123°
2026-05-07 19:38 36.62643 -4.41806 2791 ft 248 kts 88°
2026-05-07 19:38 36.63207 -4.39716 3336 ft 266 kts 55°
2026-05-07 19:38 36.64318 -4.37845 4237 ft 271 kts 51°
2026-05-07 19:38 36.65499 -4.36005 5212 ft 273 kts 50°
2026-05-07 19:39 36.66701 -4.34167 6171 ft 275 kts 50°
2026-05-07 19:39 36.67912 -4.32309 7066 ft 278 kts 51°
2026-05-07 19:39 36.69133 -4.30416 7894 ft 283 kts 51°
2026-05-07 19:39 36.69967 -4.29111 8455 ft 286 kts 51°
2026-05-07 19:40 36.71622 -4.26508 9558 ft 292 kts 52°
2026-05-07 19:40 36.72900 -4.24494 10183 ft 305 kts 52°
2026-05-07 19:40 36.74261 -4.22341 10446 ft 328 kts 52°
2026-05-07 19:40 36.75707 -4.20043 10809 ft 344 kts 52°
2026-05-07 19:41 36.77196 -4.17668 11444 ft 350 kts 52°
2026-05-07 19:41 36.78708 -4.15256 12120 ft 356 kts 52°
2026-05-07 19:41 36.80245 -4.12807 12789 ft 361 kts 52°
2026-05-07 19:41 36.81805 -4.10318 13466 ft 367 kts 51°
2026-05-07 19:42 36.83388 -4.07795 14102 ft 372 kts 51°
2026-05-07 19:42 36.84995 -4.05236 14682 ft 377 kts 51°
2026-05-07 19:42 36.86623 -4.02642 15258 ft 382 kts 51°
2026-05-07 19:42 36.88249 -4.00047 15836 ft 387 kts 51°
2026-05-07 19:43 36.89917 -3.97383 16407 ft 392 kts 50°
2026-05-07 19:43 36.91605 -3.94682 16969 ft 397 kts 50°
2026-05-07 19:43 36.93336 -3.91903 17539 ft 402 kts 50°
2026-05-07 19:43 36.95040 -3.89169 18102 ft 407 kts 50°
2026-05-07 19:44 36.96792 -3.86362 18629 ft 412 kts 50°
2026-05-07 19:44 36.98562 -3.83519 19197 ft 416 kts 50°
2026-05-07 19:44 37.00345 -3.80651 19764 ft 420 kts 50°
2026-05-07 19:44 37.02146 -3.77758 20328 ft 423 kts 50°
2026-05-07 19:45 37.03964 -3.74836 20889 ft 427 kts 49°
2026-05-07 19:45 37.05796 -3.71893 21440 ft 430 kts 49°
2026-05-07 19:45 37.07013 -3.69933 21796 ft 433 kts 49°
2026-05-07 19:45 37.08868 -3.66942 22320 ft 436 kts 49°
2026-05-07 19:46 37.10735 -3.63924 22833 ft 440 kts 49°
2026-05-07 19:46 37.12611 -3.60873 23344 ft 444 kts 50°
2026-05-07 19:46 37.14494 -3.57789 23788 ft 448 kts 50°
2026-05-07 19:46 37.16391 -3.54673 24201 ft 451 kts 50°
2026-05-07 19:47 37.18297 -3.51534 24619 ft 454 kts 50°
2026-05-07 19:47 37.20217 -3.48364 25031 ft 457 kts 50°
2026-05-07 19:47 37.22144 -3.45174 25427 ft 460 kts 49°
2026-05-07 19:47 37.24275 -3.42194 25805 ft 459 kts 40°
2026-05-07 19:48 37.26573 -3.39396 26188 ft 462 kts 40°
2026-05-07 19:48 37.28890 -3.36576 26574 ft 465 kts 40°
2026-05-07 19:48 37.31220 -3.33747 26945 ft 468 kts 40°
2026-05-07 19:48 37.33534 -3.30939 27321 ft 470 kts 40°
2026-05-07 19:49 37.35889 -3.28080 27701 ft 472 kts 40°
2026-05-07 19:49 37.38259 -3.25195 28075 ft 475 kts 39°
2026-05-07 19:49 37.40638 -3.22292 28449 ft 478 kts 40°
2026-05-07 19:49 37.43024 -3.19370 28829 ft 480 kts 40°
2026-05-07 19:50 37.45421 -3.16428 29191 ft 483 kts 39°
2026-05-07 19:50 37.47829 -3.13471 29568 ft 485 kts 39°
2026-05-07 19:50 37.50251 -3.10498 29943 ft 488 kts 39°
2026-05-07 19:50 37.52688 -3.07507 30257 ft 490 kts 39°
2026-05-07 19:51 37.55134 -3.04502 30549 ft 492 kts 39°
2026-05-07 19:51 37.57588 -3.01480 30869 ft 494 kts 39°
2026-05-07 19:51 37.60041 -2.98452 31280 ft 493 kts 39°
2026-05-07 19:51 37.62492 -2.95425 31682 ft 493 kts 39°
2026-05-07 19:52 37.64944 -2.92395 31922 ft 494 kts 39°
2026-05-07 19:52 37.67381 -2.89381 31969 ft 487 kts 38°
2026-05-07 19:52 37.72191 -2.83428 31973 ft 482 kts 38°
2026-05-07 19:53 37.76942 -2.77524 31975 ft 483 kts 39°
2026-05-07 19:53 37.81612 -2.71412 31978 ft 484 kts 41°
2026-05-07 19:54 37.86211 -2.65197 31976 ft 483 kts 41°
2026-05-07 19:54 37.90817 -2.59004 31982 ft 483 kts 40°
2026-05-07 19:55 37.95448 -2.52843 31989 ft 483 kts 40°
2026-05-07 19:55 38.00084 -2.46669 31988 ft 483 kts 40°
2026-05-07 19:56 38.04716 -2.40490 32006 ft 483 kts 40°
2026-05-07 19:56 38.09335 -2.34300 32003 ft 483 kts 40°
2026-05-07 19:57 38.13926 -2.28137 32002 ft 483 kts 40°
2026-05-07 19:57 38.18541 -2.21930 32013 ft 483 kts 40°
2026-05-07 19:58 38.22951 -2.15444 32011 ft 488 kts 45°
2026-05-07 19:58 38.27150 -2.08660 32023 ft 488 kts 45°
2026-05-07 19:59 38.31338 -2.01869 32021 ft 487 kts 45°
2026-05-07 19:59 38.35532 -1.95076 32018 ft 488 kts 45°
2026-05-07 20:00 38.39723 -1.88285 32016 ft 487 kts 45°
2026-05-07 20:00 38.43906 -1.81480 32017 ft 487 kts 45°
2026-05-07 20:01 38.48083 -1.74667 32017 ft 487 kts 45°
2026-05-07 20:01 38.52248 -1.67853 32019 ft 487 kts 45°
2026-05-07 20:02 38.56383 -1.61089 32017 ft 486 kts 45°
2026-05-07 20:02 38.60542 -1.54267 32021 ft 486 kts 45°
2026-05-07 20:03 38.64692 -1.47447 32029 ft 486 kts 44°
2026-05-07 20:03 38.68835 -1.40613 32030 ft 486 kts 44°
2026-05-07 20:04 38.72969 -1.33779 32038 ft 485 kts 44°
2026-05-07 20:04 38.77107 -1.26957 32051 ft 485 kts 44°
2026-05-07 20:05 38.81232 -1.20125 32050 ft 484 kts 44°
2026-05-07 20:05 38.85343 -1.13291 32048 ft 483 kts 44°
2026-05-07 20:06 38.89446 -1.06458 32047 ft 483 kts 44°
2026-05-07 20:06 38.93544 -0.99629 32046 ft 483 kts 44°
2026-05-07 20:07 38.97585 -0.92809 32043 ft 486 kts 49°
2026-05-07 20:07 38.99148 -0.88901 32044 ft 500 kts 64°
2026-05-07 20:07 39.00293 -0.84673 32044 ft 501 kts 65°
2026-05-07 20:08 39.02526 -0.76184 32036 ft 501 kts 65°
2026-05-07 20:08 39.04741 -0.67682 32028 ft 501 kts 65°
2026-05-07 20:09 39.06962 -0.59175 32020 ft 501 kts 65°
2026-05-07 20:10 39.10289 -0.46418 32013 ft 501 kts 65°
2026-05-07 20:10 39.12505 -0.37915 32020 ft 501 kts 65°
2026-05-07 20:11 39.14689 -0.29451 32024 ft 501 kts 65°
2026-05-07 20:11 39.16884 -0.20938 32021 ft 501 kts 65°
2026-05-07 20:12 39.19069 -0.12428 32017 ft 500 kts 65°
2026-05-07 20:12 39.21246 -0.03909 32018 ft 500 kts 66°
2026-05-07 20:13 39.23422 0.04599 32010 ft 499 kts 66°
2026-05-07 20:13 39.25186 0.13281 32005 ft 506 kts 78°
2026-05-07 20:14 39.26112 0.22270 32007 ft 505 kts 79°
2026-05-07 20:14 39.26989 0.31250 32005 ft 504 kts 79°
2026-05-07 20:15 39.27856 0.40210 31761 ft 501 kts 79°
2026-05-07 20:15 39.28285 0.44663 31510 ft 500 kts 79°
2026-05-07 20:15 39.28715 0.49102 30956 ft 497 kts 79°
2026-05-07 20:15 39.29142 0.53523 30327 ft 496 kts 80°
2026-05-07 20:16 39.29568 0.57937 29652 ft 494 kts 81°
2026-05-07 20:16 39.29989 0.62316 29035 ft 489 kts 81°
2026-05-07 20:16 39.30404 0.66645 28425 ft 484 kts 82°
2026-05-07 20:16 39.30810 0.70934 27823 ft 478 kts 82°
2026-05-07 20:17 39.31205 0.75099 27348 ft 470 kts 83°
2026-05-07 20:17 39.31600 0.79251 26871 ft 462 kts 83°
2026-05-07 20:17 39.31990 0.83348 26304 ft 457 kts 84°
2026-05-07 20:17 39.32371 0.87389 25792 ft 451 kts 84°
2026-05-07 20:18 39.32743 0.91377 25297 ft 444 kts 84°
2026-05-07 20:18 39.33105 0.95307 24810 ft 438 kts 85°
2026-05-07 20:18 39.33463 0.99184 24322 ft 432 kts 85°
2026-05-07 20:18 39.33817 1.03009 23840 ft 426 kts 85°
2026-05-07 20:19 39.34162 1.06782 23333 ft 420 kts 85°
2026-05-07 20:19 39.34503 1.10510 22773 ft 416 kts 85°
2026-05-07 20:19 39.34841 1.14204 22216 ft 412 kts 85°
2026-05-07 20:19 39.35175 1.17870 21591 ft 411 kts 85°
2026-05-07 20:20 39.35505 1.21514 21120 ft 407 kts 85°
2026-05-07 20:20 39.35832 1.25135 20667 ft 403 kts 85°
2026-05-07 20:20 39.36157 1.28739 20082 ft 403 kts 85°
2026-05-07 20:20 39.36473 1.32264 19572 ft 400 kts 85°
2026-05-07 20:21 39.36789 1.35827 19171 ft 396 kts 85°
2026-05-07 20:21 39.37104 1.39344 18681 ft 393 kts 84°
2026-05-07 20:21 39.37436 1.42826 18019 ft 387 kts 83°
2026-05-07 20:21 39.37840 1.46202 17464 ft 371 kts 82°
2026-05-07 20:22 39.38273 1.49399 17034 ft 353 kts 81°
2026-05-07 20:22 39.38707 1.52454 16612 ft 338 kts 81°
2026-05-07 20:22 39.39121 1.55388 16200 ft 327 kts 81°
2026-05-07 20:22 39.39522 1.58292 15794 ft 329 kts 81°
2026-05-07 20:23 39.39912 1.61198 15384 ft 328 kts 81°
2026-05-07 20:23 39.40295 1.64105 14976 ft 328 kts 81°
2026-05-07 20:23 39.40675 1.67012 14562 ft 328 kts 81°
2026-05-07 20:23 39.41051 1.69916 14150 ft 327 kts 81°
2026-05-07 20:24 39.41427 1.72820 13735 ft 327 kts 81°
2026-05-07 20:24 39.41802 1.75719 13288 ft 327 kts 81°
2026-05-07 20:24 39.42171 1.78569 12872 ft 325 kts 81°
2026-05-07 20:24 39.42548 1.81478 12457 ft 323 kts 81°
2026-05-07 20:25 39.42913 1.84295 12054 ft 321 kts 81°
2026-05-07 20:25 39.43277 1.87131 11639 ft 319 kts 81°
2026-05-07 20:25 39.43613 1.89938 11281 ft 315 kts 85°
2026-05-07 20:25 39.43497 1.92762 10813 ft 315 kts 96°
2026-05-07 20:26 39.43217 1.95566 10408 ft 313 kts 97°
2026-05-07 20:26 39.42924 1.98304 10276 ft 302 kts 97°
2026-05-07 20:26 39.42636 2.00947 10153 ft 291 kts 97°
2026-05-07 20:26 39.42352 2.03508 9944 ft 285 kts 97°
2026-05-07 20:27 39.42067 2.06035 9620 ft 283 kts 97°
2026-05-07 20:27 39.41778 2.08544 9274 ft 281 kts 97°
2026-05-07 20:27 39.41484 2.11034 8938 ft 279 kts 97°
2026-05-07 20:27 39.41407 2.13514 8603 ft 275 kts 84°
2026-05-07 20:28 39.41587 2.15970 8261 ft 273 kts 82°
2026-05-07 20:28 39.41791 2.18404 7938 ft 272 kts 82°
2026-05-07 20:28 39.41995 2.20800 7448 ft 276 kts 82°
2026-05-07 20:28 39.42208 2.23338 6661 ft 292 kts 82°
2026-05-07 20:29 39.42422 2.25960 6268 ft 294 kts 82°
2026-05-07 20:29 39.42640 2.28588 5879 ft 293 kts 82°
2026-05-07 20:29 39.42861 2.31206 5496 ft 292 kts 82°
2026-05-07 20:29 39.43086 2.33815 5124 ft 291 kts 82°
2026-05-07 20:30 39.43316 2.36413 4996 ft 291 kts 82°
2026-05-07 20:30 39.43547 2.39014 5006 ft 288 kts 82°
2026-05-07 20:30 39.43766 2.41503 4997 ft 266 kts 82°
2026-05-07 20:30 39.43963 2.43769 5001 ft 241 kts 82°
2026-05-07 20:31 39.44141 2.45860 5005 ft 231 kts 82°
2026-05-07 20:31 39.44316 2.47912 5008 ft 229 kts 82°
2026-05-07 20:31 39.44489 2.49956 5009 ft 229 kts 82°
2026-05-07 20:31 39.44663 2.52002 5008 ft 228 kts 81°
2026-05-07 20:32 39.45015 2.53999 4999 ft 227 kts 73°
2026-05-07 20:32 39.45503 2.55922 4612 ft 223 kts 63°
2026-05-07 20:32 39.46547 2.57325 4105 ft 220 kts 31°
2026-05-07 20:32 39.47891 2.58273 3420 ft 225 kts 30°
2026-05-07 20:33 39.49101 2.59546 2903 ft 222 kts 50°
2026-05-07 20:33 39.49993 2.61130 2519 ft 214 kts 58°
2026-05-07 20:33 39.50767 2.62738 2094 ft 205 kts 59°
2026-05-07 20:33 39.51481 2.64248 1660 ft 189 kts 59°
2026-05-07 20:34 39.52142 2.65643 1202 ft 178 kts 59°
2026-05-07 20:34 39.52766 2.66961 829 ft 163 kts 60°
2026-05-07 20:34 39.53330 2.68151 605 ft 149 kts 58°
2026-05-07 20:34 39.53856 2.69265 381 ft 142 kts 56°
2026-05-07 20:35 39.54366 2.70333 196 ft 138 kts 57°
2026-05-07 20:35 39.54869 2.71388 45 ft 137 kts 58°
2026-05-07 20:35 39.55306 2.72311 30 ft 97 kts 58°
2026-05-07 20:35 39.55579 2.72887 30 ft 60 kts 58°
2026-05-07 20:36 39.55713 2.73208 30 ft 30 kts 77°
2026-05-07 20:36 39.55718 2.73402 30 ft 13 kts 101°
2026-05-07 20:36 39.55664 2.73469 30 ft 11 kts 148°
2026-05-07 20:36 39.55603 2.73518 30 ft 10 kts 148°
2026-05-07 20:37 39.55542 2.73565 30 ft 11 kts 149°
2026-05-07 20:37 39.55469 2.73622 30 ft 12 kts 148°
2026-05-07 20:37 39.55394 2.73682 30 ft 13 kts 148°
2026-05-07 20:37 39.55318 2.73742 30 ft 13 kts 148°
2026-05-07 20:38 39.55237 2.73807 30 ft 14 kts 148°
2026-05-07 20:38 39.55151 2.73874 30 ft 15 kts 148°
2026-05-07 20:38 39.55061 2.73945 30 ft 16 kts 149°
2026-05-07 20:38 39.54963 2.74021 30 ft 17 kts 149°
2026-05-07 20:39 39.54860 2.74103 30 ft 17 kts 148°
2026-05-07 20:39 39.54763 2.74069 30 ft 17 kts 238°
2026-05-07 20:39 39.54699 2.73935 30 ft 19 kts 238°
2026-05-07 20:39 39.54630 2.73789 30 ft 19 kts 238°
2026-05-07 20:40 39.54593 2.73650 30 ft 13 kts 295°
2026-05-07 20:40 39.54664 2.73614 30 ft 9 kts 349°
2026-05-07 20:40 39.54702 2.73637 30 ft 7 kts 54°
2026-05-07 20:40 39.54717 2.73669 30 ft 2 kts 58°
2026-05-07 20:41 39.54719 2.73672 30 ft 0 kts 58°